Content
SEND FEEDBACK

Daily
Averages
Monthly
Summary
Canada

VANCOUVER, BRITISH COLUMBIA


Home > North America > Canada > British Columbia
Elevation: 7 feet     Latitude: 49 11N     Longitude: 123 10W

WEATHER
 
SELECT A DAY
Number of Records: 253,051;   Date Range: 5/15/97 - 10/22/14
 
SHARE

PRINT THIS DATA

[ ← Previous Day ]
WEATHER ALMANAC - FEBRUARY 3, 2013
[ Next Day → ]
[ °C ]   °F
Weather ElementAverageHighLow
Temperature42.7 °F44.6 °F (10:55 am)39.2 °F (3:35 am)
Dewpoint40.8 °F42.8 °F (3:15 pm)37.4 °F (4:35 am)
Humidity92.9 %100 % (3:35 am)81 % (10:55 am)
Barometer30.23 in30.28 in (10:35 am)30.16 in (11:55 pm)
Wind Speed5.8 mph11.5 mph (10:15 am)
Weather ElementAverage
Visibility8.4 mi
Wind DirectionSSE (166.8 °)

Weather ElementTotal
Precipitation---
Heating Degree Days23.1 (Base 65)
Averaged from 68 records on February 3, 2013
WEATHER CONDITIONS BREAKOUT
WIND DIRECTION BREAKOUT
WEATHER BY HOUR - FEBRUARY 3, 2013
[ °C ]   °F
Local TimeTemperatureDewpointHumidityBarometerVisibilityWind DirectionWind SpeedGust SpeedPrecipitationEventsConditions
12:35 AM41.0 °F39.2 °F93 %30.27 in10.0 miCalmOvercast
12:55 AM41.0 °F39.2 °F93 %30.26 in10.0 miCalmOvercast
1:15 AM41.0 °F39.2 °F93 %30.25 in10.0 miCalmOvercast
1:35 AM41.0 °F39.2 °F93 %30.24 in10.0 miSouth (180°)4.6 mphOvercast
1:55 AM41.0 °F39.2 °F93 %30.25 in10.0 miSouth (180°)5.8 mphOvercast
2:15 AM41.0 °F39.2 °F93 %30.26 in10.0 miSSW (210°)8.1 mphOvercast
2:35 AM41.0 °F39.2 °F93 %30.25 in10.0 miSouth (190°)8.1 mphOvercast
2:55 AM41.0 °F39.2 °F93 %30.24 in10.0 miSouth (190°)5.8 mphOvercast
3:15 AM41.0 °F39.2 °F93 %30.25 in10.0 miSouth (170°)3.5 mphMostly Cloudy
3:35 AM39.2 °F39.2 °F100 %30.25 in10.0 miSouth (180°)3.5 mphPartly Cloudy
3:55 AM39.2 °F39.2 °F100 %30.25 in10.0 miSouth (180°)3.5 mphPartly Cloudy
4:15 AM39.2 °F39.2 °F100 %30.25 in10.0 miSouth (180°)4.6 mphScattered Clouds
4:35 AM39.2 °F37.4 °F93 %30.24 in10.0 miSouth (180°)3.5 mphPartly Cloudy
4:55 AM39.2 °F37.4 °F93 %30.24 in10.0 miCalmScattered Clouds
5:15 AM39.2 °F39.2 °F100 %30.25 in10.0 miSouth (180°)4.6 mphMostly Cloudy
5:35 AM41.0 °F39.2 °F93 %30.26 in10.0 miCalmOvercast
5:55 AM41.0 °F39.2 °F93 %30.26 in10.0 miSouth (170°)3.5 mphOvercast
6:15 AM41.0 °F39.2 °F93 %30.25 in10.0 miSouth (170°)3.5 mphOvercast
6:55 AM41.0 °F39.2 °F93 %30.25 in7.0 miSouth (190°)8.1 mphOvercast
7:15 AM39.2 °F39.2 °F100 %30.25 in7.0 miSSE (160°)4.6 mphOvercast
7:35 AM39.2 °F39.2 °F100 %30.25 in5.0 miSSE (160°)3.5 mphOvercast
7:55 AM39.2 °F39.2 °F100 %30.26 in5.0 miSouth (170°)3.5 mphOvercast
8:15 AM39.2 °F39.2 °F100 %30.27 in6.0 miSouth (190°)5.8 mphOvercast
8:35 AM39.2 °F39.2 °F100 %30.27 in5.0 miCalmOvercast
8:55 AM41.0 °F39.2 °F93 %30.27 in6.0 miSSE (160°)3.5 mphOvercast
9:15 AM41.0 °F39.2 °F93 %30.27 in8.0 miSSE (160°)3.5 mphOvercast
9:35 AM41.0 °F39.2 °F93 %30.26 in8.0 miSouth (170°)5.8 mphOvercast
9:55 AM41.0 °F39.2 °F93 %30.25 in9.0 miSouth (180°)4.6 mphOvercast
10:15 AM41.0 °F39.2 °F93 %30.27 in10.0 miSSW (200°)11.5 mphOvercast
10:35 AM42.8 °F39.2 °F87 %30.28 in10.0 miSSW (200°)8.1 mphOvercast
10:55 AM44.6 °F39.2 °F81 %30.28 in10.0 miSouth (190°)5.8 mphOvercast
11:15 AM44.6 °F41.0 °F87 %30.27 in10.0 miSouth (190°)8.1 mphMostly Cloudy
11:35 AM44.6 °F41.0 °F87 %30.26 in10.0 miSouth (190°)9.2 mphScattered Clouds
11:55 AM44.6 °F41.0 °F87 %30.27 in10.0 miSouth (190°)8.1 mphPartly Cloudy
12:15 PM44.6 °F41.0 °F87 %30.26 in10.0 miSouth (190°)8.1 mphMostly Cloudy
12:35 PM44.6 °F41.0 °F87 %30.26 in10.0 miSouth (190°)8.1 mphOvercast
12:55 PM44.6 °F41.0 °F87 %30.24 in9.0 miSouth (180°)5.8 mphRainLight Rain
1:15 PM44.6 °F41.0 °F87 %30.23 in9.0 miSouth (190°)9.2 mphPartly Cloudy
1:55 PM44.6 °F41.0 °F87 %30.23 in10.0 miSouth (180°)9.2 mphOvercast
2:15 PM44.6 °F41.0 °F87 %30.22 in10.0 miSouth (180°)5.8 mphMostly Cloudy
2:35 PM44.6 °F41.0 °F87 %30.22 in9.0 miSouth (180°)8.1 mphRainLight Rain
2:55 PM44.6 °F41.0 °F87 %30.22 in6.0 miSouth (170°)5.8 mphRainLight Rain
3:15 PM44.6 °F42.8 °F93 %30.22 in4.0 miSouth (180°)5.8 mphRainLight Rain
3:35 PM44.6 °F42.8 °F93 %30.22 in3.0 miSouth (170°)6.9 mphRainLight Rain
3:55 PM44.6 °F42.8 °F93 %30.22 in5.0 miSouth (170°)4.6 mphRainLight Rain
4:15 PM44.6 °F42.8 °F93 %30.21 in5.0 miSouth (180°)5.8 mphRainLight Rain
4:35 PM44.6 °F42.8 °F93 %30.21 in6.0 miSouth (180°)5.8 mphRainLight Rain
4:55 PM44.6 °F42.8 °F93 %30.21 in5.0 miSouth (170°)4.6 mphRainLight Rain
5:15 PM44.6 °F42.8 °F93 %30.21 in4.0 miSouth (190°)6.9 mphRainLight Rain
5:35 PM44.6 °F42.8 °F93 %30.21 in5.0 miSouth (190°)6.9 mphRainLight Rain
5:55 PM44.6 °F42.8 °F93 %30.21 in5.0 miSouth (180°)5.8 mphRainLight Rain
6:15 PM42.8 °F42.8 °F100 %30.21 in5.0 miSouth (180°)4.6 mphRainLight Rain
6:35 PM44.6 °F42.8 °F93 %30.21 in7.0 miSouth (180°)4.6 mphRainLight Rain
6:55 PM44.6 °F42.8 °F93 %30.20 in7.0 miSouth (190°)5.8 mphRainLight Rain
7:15 PM44.6 °F42.8 °F93 %30.20 in7.0 miSouth (190°)8.1 mphMostly Cloudy
7:35 PM44.6 °F42.8 °F93 %30.20 in7.0 miSouth (180°)5.8 mphRainLight Rain
7:55 PM42.8 °F42.8 °F100 %30.20 in6.0 miSouth (190°)6.9 mphRainLight Rain
8:15 PM42.8 °F42.8 °F100 %30.19 in9.0 miSouth (180°)4.6 mphOvercast
8:35 PM44.6 °F42.8 °F93 %30.18 in10.0 miSouth (180°)5.8 mphOvercast
8:55 PM44.6 °F42.8 °F93 %30.18 in10.0 miSouth (180°)4.6 mphOvercast
9:15 PM44.6 °F42.8 °F93 %30.18 in10.0 miSouth (180°)4.6 mphOvercast
9:35 PM44.6 °F42.8 °F93 %30.18 in10.0 miSSW (200°)8.1 mphOvercast
9:55 PM44.6 °F42.8 °F93 %30.18 in10.0 miSSW (200°)10.4 mphOvercast
10:15 PM44.6 °F42.8 °F93 %30.18 in10.0 miSSW (200°)10.4 mphMostly Cloudy
10:35 PM44.6 °F42.8 °F93 %30.18 in10.0 miSSW (200°)10.4 mphOvercast
10:55 PM44.6 °F42.8 °F93 %30.17 in10.0 miSouth (190°)10.4 mphOvercast
11:15 PM44.6 °F42.8 °F93 %30.17 in10.0 miSSW (200°)11.5 mphMostly Cloudy
11:55 PM44.6 °F41.0 °F87 %30.16 in10.0 miSouth (190°)6.9 mphOvercast
Hourly data recorded from CZBB, located miles away from Vancouver, British Columbia







STORIES FROM OUR PARTNERS